BEL5GR EBBR-EDDM

Flight info

Callsign BEL5GR
Flight time 1h 0m
Altitude 35000
Route SOPOK Y863 ROPUV L607 EMGOD DCT MOVUM T109 HAREM T104 ROKIL ROKIL1B
Aircraft A319/M-SDE3FGHIRWY/LB1

Departure

Time 2026-05-07 16:57
Airport Brussels Airport (EBBR)

Arrival

Time 2026-05-07 17:57
Airport Munich Airport (EDDM)
Time Latitude Longitude Altitude Speed Heading
2026-05-07 16:29 50.90279 4.48150 192 ft 0 kts 155°
2026-05-07 16:41 50.90279 4.48149 193 ft 0 kts 155°
2026-05-07 16:44 50.90282 4.48147 193 ft 2 kts 155°
2026-05-07 16:44 50.90295 4.48138 193 ft 2 kts 155°
2026-05-07 16:44 50.90309 4.48128 193 ft 2 kts 155°
2026-05-07 16:44 50.90323 4.48118 193 ft 2 kts 156°
2026-05-07 16:45 50.90337 4.48113 193 ft 2 kts 179°
2026-05-07 16:45 50.90352 4.48116 193 ft 2 kts 198°
2026-05-07 16:45 50.90365 4.48126 193 ft 2 kts 216°
2026-05-07 16:45 50.90376 4.48142 193 ft 2 kts 235°
2026-05-07 16:46 50.90380 4.48154 193 ft 1 kts 245°
2026-05-07 16:46 50.90382 4.48161 193 ft 0 kts 246°
2026-05-07 16:49 50.90382 4.48160 193 ft 0 kts 246°
2026-05-07 16:49 50.90374 4.48134 193 ft 4 kts 246°
2026-05-07 16:49 50.90371 4.48067 193 ft 7 kts 294°
2026-05-07 16:50 50.90423 4.48046 193 ft 10 kts 39°
2026-05-07 16:50 50.90460 4.48160 193 ft 13 kts 65°
2026-05-07 16:50 50.90502 4.48305 193 ft 15 kts 65°
2026-05-07 16:50 50.90550 4.48471 193 ft 17 kts 65°
2026-05-07 16:51 50.90604 4.48656 193 ft 19 kts 64°
2026-05-07 16:51 50.90662 4.48857 192 ft 20 kts 65°
2026-05-07 16:51 50.90722 4.49066 193 ft 20 kts 65°
2026-05-07 16:51 50.90781 4.49271 192 ft 20 kts 64°
2026-05-07 16:52 50.90825 4.49425 192 ft 12 kts 65°
2026-05-07 16:52 50.90848 4.49505 193 ft 0 kts 65°
2026-05-07 16:53 50.90850 4.49510 193 ft 1 kts 65°
2026-05-07 16:53 50.90863 4.49556 192 ft 7 kts 65°
2026-05-07 16:53 50.90899 4.49648 192 ft 11 kts 38°
2026-05-07 16:53 50.90957 4.49664 192 ft 4 kts 334°
2026-05-07 16:54 50.90959 4.49663 192 ft 0 kts 328°
2026-05-07 16:55 50.90970 4.49645 192 ft 5 kts 306°
2026-05-07 16:56 50.90981 4.49553 192 ft 11 kts 272°
2026-05-07 16:56 50.90985 4.49392 192 ft 17 kts 262°
2026-05-07 16:56 50.90651 4.48193 193 ft 126 kts 245°
2026-05-07 16:57 50.90213 4.46678 346 ft 168 kts 247°
2026-05-07 16:57 50.89729 4.44986 1001 ft 171 kts 246°
2026-05-07 16:57 50.89245 4.43303 1758 ft 172 kts 243°
2026-05-07 16:57 50.88428 4.41935 2349 ft 180 kts 199°
2026-05-07 16:58 50.87178 4.41990 2856 ft 190 kts 149°
2026-05-07 16:58 50.86224 4.43485 3354 ft 206 kts 124°
2026-05-07 16:58 50.85360 4.45367 3932 ft 224 kts 125°
2026-05-07 16:58 50.84372 4.47385 4545 ft 243 kts 127°
2026-05-07 16:59 50.83248 4.49521 5172 ft 261 kts 129°
2026-05-07 16:59 50.82059 4.51683 6004 ft 268 kts 130°
2026-05-07 16:59 50.80812 4.53900 6982 ft 271 kts 131°
2026-05-07 16:59 50.79567 4.56088 7886 ft 275 kts 131°
2026-05-07 17:00 50.78282 4.58334 8725 ft 280 kts 132°
2026-05-07 17:00 50.76965 4.60630 9578 ft 285 kts 132°
2026-05-07 17:00 50.75628 4.62956 10415 ft 291 kts 132°
2026-05-07 17:00 50.74247 4.65373 10969 ft 306 kts 132°
2026-05-07 17:01 50.72815 4.67943 11480 ft 322 kts 132°
2026-05-07 17:01 50.71329 4.70625 12222 ft 328 kts 132°
2026-05-07 17:01 50.69926 4.73453 13035 ft 332 kts 124°
2026-05-07 17:01 50.68855 4.76661 13795 ft 337 kts 113°
2026-05-07 17:02 50.68087 4.80183 14544 ft 342 kts 108°
2026-05-07 17:02 50.67394 4.83776 15281 ft 346 kts 107°
2026-05-07 17:02 50.66709 4.87379 15987 ft 350 kts 107°
2026-05-07 17:02 50.66003 4.91055 16689 ft 354 kts 108°
2026-05-07 17:03 50.65281 4.94773 17377 ft 358 kts 108°
2026-05-07 17:03 50.64552 4.98500 18043 ft 361 kts 108°
2026-05-07 17:03 50.63803 5.02302 18696 ft 365 kts 108°
2026-05-07 17:03 50.63058 5.06078 19326 ft 368 kts 108°
2026-05-07 17:04 50.62291 5.09952 19944 ft 372 kts 108°
2026-05-07 17:04 50.61520 5.13831 20551 ft 376 kts 108°
2026-05-07 17:04 50.60732 5.17786 21154 ft 380 kts 108°
2026-05-07 17:04 50.59943 5.21737 21727 ft 383 kts 108°
2026-05-07 17:05 50.59142 5.25727 22315 ft 386 kts 109°
2026-05-07 17:05 50.58055 5.29579 22869 ft 388 kts 121°
2026-05-07 17:05 50.56486 5.33043 23438 ft 389 kts 133°
2026-05-07 17:05 50.54579 5.36002 23983 ft 391 kts 139°
2026-05-07 17:06 50.52549 5.38870 24518 ft 394 kts 140°
2026-05-07 17:06 50.50508 5.41726 25037 ft 397 kts 140°
2026-05-07 17:06 50.48455 5.44610 25539 ft 400 kts 139°
2026-05-07 17:06 50.46382 5.47536 26019 ft 403 kts 139°
2026-05-07 17:07 50.44280 5.50513 26480 ft 407 kts 139°
2026-05-07 17:07 50.42177 5.53493 26923 ft 410 kts 139°
2026-05-07 17:07 50.40076 5.56471 27347 ft 413 kts 139°
2026-05-07 17:07 50.37927 5.59516 27773 ft 416 kts 139°
2026-05-07 17:08 50.35790 5.62541 28187 ft 419 kts 139°
2026-05-07 17:08 50.33615 5.65615 28592 ft 422 kts 140°
2026-05-07 17:08 50.31428 5.68699 28991 ft 424 kts 140°
2026-05-07 17:08 50.29249 5.71790 29370 ft 427 kts 138°
2026-05-07 17:09 50.27214 5.75293 29720 ft 432 kts 129°
2026-05-07 17:09 50.25555 5.79188 30076 ft 436 kts 120°
2026-05-07 17:09 50.24271 5.83480 30414 ft 440 kts 111°
2026-05-07 17:09 50.23380 5.87992 30765 ft 442 kts 105°
2026-05-07 17:10 50.22626 5.92597 31190 ft 442 kts 104°
2026-05-07 17:10 50.21870 5.97324 31668 ft 440 kts 104°
2026-05-07 17:10 50.21116 6.01913 32111 ft 439 kts 105°
2026-05-07 17:10 50.20350 6.06491 32521 ft 439 kts 104°
2026-05-07 17:11 50.19684 6.11085 32914 ft 438 kts 101°
2026-05-07 17:11 50.19185 6.15787 33293 ft 438 kts 97°
2026-05-07 17:11 50.18880 6.20481 33627 ft 439 kts 94°
2026-05-07 17:11 50.18763 6.25253 33914 ft 440 kts 90°
2026-05-07 17:12 50.18839 6.30016 34184 ft 441 kts 86°
2026-05-07 17:12 50.19090 6.34748 34460 ft 442 kts 83°
2026-05-07 17:12 50.19400 6.39506 34709 ft 444 kts 83°
2026-05-07 17:12 50.19719 6.44318 34921 ft 445 kts 83°
2026-05-07 17:13 50.20327 6.53843 35001 ft 446 kts 83°
2026-05-07 17:13 50.20914 6.63461 35002 ft 445 kts 83°
2026-05-07 17:14 50.21490 6.73046 35007 ft 445 kts 84°
2026-05-07 17:14 50.21969 6.82657 35008 ft 444 kts 88°
2026-05-07 17:15 50.21816 6.92224 35013 ft 444 kts 94°
2026-05-07 17:15 50.21308 7.01826 35017 ft 444 kts 94°
2026-05-07 17:16 50.20792 7.11410 35020 ft 444 kts 94°
2026-05-07 17:16 50.20278 7.20951 35020 ft 444 kts 94°
2026-05-07 17:17 50.19594 7.30519 35019 ft 445 kts 99°
2026-05-07 17:17 50.18229 7.39861 35013 ft 445 kts 106°
2026-05-07 17:18 50.16389 7.49037 35007 ft 445 kts 107°
2026-05-07 17:18 50.14538 7.58149 35011 ft 445 kts 107°
2026-05-07 17:19 50.12668 7.67361 35013 ft 445 kts 107°
2026-05-07 17:19 50.10812 7.76473 35005 ft 445 kts 107°
2026-05-07 17:20 50.08930 7.85676 34999 ft 446 kts 107°
2026-05-07 17:20 50.07052 7.94821 35000 ft 446 kts 107°
2026-05-07 17:21 50.05172 8.03935 35012 ft 446 kts 107°
2026-05-07 17:21 50.03279 8.13070 35007 ft 446 kts 107°
2026-05-07 17:22 50.01379 8.22197 34999 ft 446 kts 107°
2026-05-07 17:22 49.99469 8.31342 35005 ft 446 kts 107°
2026-05-07 17:23 49.97553 8.40462 35006 ft 446 kts 107°
2026-05-07 17:23 49.95530 8.49567 35005 ft 446 kts 111°
2026-05-07 17:24 49.92911 8.58252 35005 ft 446 kts 118°
2026-05-07 17:24 49.89832 8.66634 35009 ft 447 kts 120°
2026-05-07 17:25 49.86742 8.74994 35001 ft 447 kts 120°
2026-05-07 17:25 49.83661 8.83292 34998 ft 447 kts 120°
2026-05-07 17:26 49.80555 8.91627 34985 ft 447 kts 120°
2026-05-07 17:26 49.77456 8.99924 35003 ft 448 kts 120°
2026-05-07 17:27 49.74350 9.08220 34997 ft 447 kts 120°
2026-05-07 17:27 49.71242 9.16498 35004 ft 447 kts 120°
2026-05-07 17:28 49.68122 9.24789 35005 ft 447 kts 121°
2026-05-07 17:28 49.65007 9.33025 35001 ft 447 kts 121°
2026-05-07 17:29 49.61691 9.41094 34995 ft 447 kts 126°
2026-05-07 17:29 49.57805 9.48506 35000 ft 447 kts 131°
2026-05-07 17:30 49.53712 9.55665 35000 ft 447 kts 132°
2026-05-07 17:30 49.49608 9.62840 35005 ft 446 kts 132°
2026-05-07 17:31 49.45519 9.69984 35005 ft 446 kts 133°
2026-05-07 17:31 49.41426 9.77114 35011 ft 446 kts 133°
2026-05-07 17:32 49.37330 9.84218 34640 ft 449 kts 133°
2026-05-07 17:32 49.35264 9.87782 33927 ft 448 kts 133°
2026-05-07 17:32 49.33229 9.91290 33222 ft 445 kts 133°
2026-05-07 17:33 49.31168 9.94842 32488 ft 441 kts 133°
2026-05-07 17:33 49.29175 9.98274 31729 ft 437 kts 132°
2026-05-07 17:33 49.27146 10.01763 30812 ft 437 kts 132°
2026-05-07 17:33 49.25141 10.05209 29777 ft 437 kts 133°
2026-05-07 17:34 49.23141 10.08639 28752 ft 430 kts 133°
2026-05-07 17:34 49.21173 10.12008 27741 ft 424 kts 133°
2026-05-07 17:34 49.19254 10.15290 26746 ft 418 kts 133°
2026-05-07 17:34 49.17337 10.18571 25810 ft 412 kts 133°
2026-05-07 17:35 49.15437 10.21814 25212 ft 411 kts 133°
2026-05-07 17:35 49.13532 10.25041 25020 ft 409 kts 134°
2026-05-07 17:35 49.11594 10.28183 25018 ft 410 kts 135°
2026-05-07 17:35 49.09637 10.31312 25017 ft 411 kts 135°
2026-05-07 17:36 49.07655 10.34478 25016 ft 411 kts 134°
2026-05-07 17:36 49.05687 10.37631 25012 ft 412 kts 134°
2026-05-07 17:36 49.03729 10.40767 24969 ft 412 kts 134°
2026-05-07 17:36 49.01770 10.43908 24649 ft 410 kts 134°
2026-05-07 17:37 48.99809 10.47049 24237 ft 408 kts 134°
2026-05-07 17:37 48.97852 10.50172 23797 ft 405 kts 134°
2026-05-07 17:37 48.95931 10.53231 23355 ft 402 kts 134°
2026-05-07 17:37 48.94000 10.56303 22908 ft 399 kts 134°
2026-05-07 17:38 48.92090 10.59341 22468 ft 396 kts 134°
2026-05-07 17:38 48.90205 10.62337 22035 ft 394 kts 134°
2026-05-07 17:38 48.88323 10.65326 21597 ft 391 kts 135°
2026-05-07 17:38 48.86463 10.68278 21159 ft 388 kts 135°
2026-05-07 17:39 48.84601 10.71228 20724 ft 385 kts 135°
2026-05-07 17:39 48.82778 10.74112 20284 ft 382 kts 135°
2026-05-07 17:39 48.80939 10.77019 19842 ft 380 kts 136°
2026-05-07 17:39 48.79113 10.79894 19395 ft 377 kts 136°
2026-05-07 17:40 48.77322 10.82705 18965 ft 375 kts 136°
2026-05-07 17:40 48.75510 10.85545 18528 ft 372 kts 136°
2026-05-07 17:40 48.73819 10.88501 18210 ft 373 kts 129°
2026-05-07 17:40 48.72301 10.91646 17955 ft 372 kts 127°
2026-05-07 17:41 48.70810 10.94839 17691 ft 371 kts 127°
2026-05-07 17:41 48.69319 10.98009 17431 ft 369 kts 127°
2026-05-07 17:41 48.67823 11.01150 17172 ft 367 kts 127°
2026-05-07 17:41 48.66325 11.04266 17030 ft 366 kts 127°
2026-05-07 17:42 48.64828 11.07358 17025 ft 366 kts 128°
2026-05-07 17:42 48.63336 11.10428 17025 ft 366 kts 128°
2026-05-07 17:42 48.61816 11.13546 17025 ft 366 kts 128°
2026-05-07 17:42 48.60319 11.16612 17023 ft 366 kts 128°
2026-05-07 17:43 48.58798 11.19722 17002 ft 366 kts 128°
2026-05-07 17:43 48.57301 11.22779 16759 ft 365 kts 128°
2026-05-07 17:43 48.55805 11.25829 16509 ft 363 kts 128°
2026-05-07 17:43 48.54301 11.28895 16255 ft 362 kts 128°
2026-05-07 17:44 48.52822 11.31907 16004 ft 360 kts 128°
2026-05-07 17:44 48.51335 11.34932 15752 ft 359 kts 128°
2026-05-07 17:44 48.49842 11.37966 15498 ft 358 kts 128°
2026-05-07 17:44 48.48372 11.40949 15264 ft 356 kts 128°
2026-05-07 17:45 48.46897 11.43936 15016 ft 355 kts 128°
2026-05-07 17:45 48.45425 11.46912 14778 ft 354 kts 128°
2026-05-07 17:45 48.44003 11.49913 14444 ft 353 kts 121°
2026-05-07 17:45 48.43158 11.53346 14022 ft 351 kts 99°
2026-05-07 17:46 48.43119 11.56964 13566 ft 349 kts 83°
2026-05-07 17:46 48.43414 11.60553 13054 ft 342 kts 81°
2026-05-07 17:46 48.43729 11.64027 12557 ft 334 kts 81°
2026-05-07 17:46 48.44031 11.67457 12054 ft 327 kts 82°
2026-05-07 17:47 48.44314 11.70809 11548 ft 321 kts 82°
2026-05-07 17:47 48.44581 11.74104 10992 ft 313 kts 82°
2026-05-07 17:47 48.44835 11.77306 10400 ft 308 kts 83°
2026-05-07 17:47 48.45079 11.80438 9708 ft 305 kts 83°
2026-05-07 17:48 48.45322 11.83586 8968 ft 301 kts 83°
2026-05-07 17:48 48.45558 11.86684 8268 ft 297 kts 83°
2026-05-07 17:48 48.45791 11.89731 7609 ft 292 kts 83°
2026-05-07 17:48 48.46017 11.92709 6947 ft 287 kts 83°
2026-05-07 17:49 48.46241 11.95684 6265 ft 283 kts 83°
2026-05-07 17:49 48.46456 11.98572 5604 ft 279 kts 83°
2026-05-07 17:49 48.46669 12.01445 4929 ft 276 kts 83°
2026-05-07 17:49 48.46878 12.04262 4331 ft 269 kts 82°
2026-05-07 17:50 48.47081 12.07017 4005 ft 260 kts 82°
2026-05-07 17:50 48.47282 12.09719 3969 ft 260 kts 82°
2026-05-07 17:50 48.47481 12.12393 3967 ft 260 kts 82°
2026-05-07 17:50 48.47620 12.15112 3961 ft 261 kts 92°
2026-05-07 17:51 48.47089 12.17689 3961 ft 262 kts 122°
2026-05-07 17:51 48.45803 12.19547 3963 ft 257 kts 153°
2026-05-07 17:51 48.44110 12.20350 3973 ft 255 kts 171°
2026-05-07 17:51 48.42363 12.20568 3959 ft 252 kts 190°
2026-05-07 17:52 48.40763 12.19595 3963 ft 248 kts 220°
2026-05-07 17:52 48.39697 12.17617 3969 ft 244 kts 245°
2026-05-07 17:52 48.39156 12.15246 3968 ft 239 kts 260°
2026-05-07 17:52 48.38959 12.12790 3967 ft 239 kts 268°
2026-05-07 17:53 48.38854 12.10293 3968 ft 240 kts 268°
2026-05-07 17:53 48.38715 12.07786 3969 ft 240 kts 266°
2026-05-07 17:53 48.38533 12.05274 3968 ft 241 kts 265°
2026-05-07 17:53 48.38337 12.02841 3960 ft 231 kts 265°
2026-05-07 17:54 48.38140 12.00483 3827 ft 220 kts 265°
2026-05-07 17:54 48.37956 11.98240 3548 ft 215 kts 265°
2026-05-07 17:54 48.37780 11.96051 3262 ft 209 kts 265°
2026-05-07 17:54 48.37611 11.93939 2996 ft 198 kts 266°
2026-05-07 17:55 48.37457 11.91995 2792 ft 180 kts 265°
2026-05-07 17:55 48.37317 11.90214 2552 ft 164 kts 266°
2026-05-07 17:55 48.37190 11.88582 2304 ft 151 kts 266°
2026-05-07 17:55 48.37074 11.87097 2097 ft 137 kts 266°
2026-05-07 17:56 48.36964 11.85693 1932 ft 134 kts 266°
2026-05-07 17:56 48.36859 11.84300 1771 ft 133 kts 265°
2026-05-07 17:56 48.36750 11.82932 1593 ft 132 kts 265°
2026-05-07 17:56 48.36647 11.81557 1460 ft 127 kts 265°
2026-05-07 17:57 48.36564 11.80467 1460 ft 81 kts 265°
2026-05-07 17:57 48.36529 11.80005 1463 ft 53 kts 263°
2026-05-07 17:57 48.36378 11.79555 1466 ft 25 kts 234°
2026-05-07 17:57 48.36319 11.79436 1467 ft 10 kts 234°
2026-05-07 17:58 48.36294 11.79383 1467 ft 0 kts 233°
2026-05-07 17:58 48.36292 11.79379 1467 ft 1 kts 233°
2026-05-07 17:59 48.36275 11.79349 1468 ft 5 kts 228°
2026-05-07 17:59 48.36238 11.79306 1468 ft 8 kts 204°
2026-05-07 17:59 48.36174 11.79302 1469 ft 10 kts 173°
2026-05-07 17:59 48.36099 11.79315 1469 ft 9 kts 173°
2026-05-07 18:00 48.36030 11.79327 1470 ft 10 kts 174°
2026-05-07 18:00 48.35969 11.79337 1470 ft 2 kts 173°
2026-05-07 18:01 48.35968 11.79337 1470 ft 0 kts 173°
2026-05-07 18:01 48.35949 11.79341 1470 ft 5 kts 172°
2026-05-07 18:01 48.35895 11.79374 1470 ft 10 kts 162°
2026-05-07 18:01 48.35813 11.79391 1471 ft 9 kts 174°
2026-05-07 18:02 48.35784 11.79288 1472 ft 6 kts 263°
2026-05-07 18:02 48.35780 11.79239 1472 ft 0 kts 263°
2026-05-07 18:02 48.35780 11.79238 1472 ft 0 kts 263°